Regional Weather Roundup
Issued by NWS Grand Forks, ND

Home | Current Version | Previous Version | Graphics & Text | Print | Product List | Glossary Off
Versions: 1 2 3 4 5 6 7 8 9 10 11 12 13 14 15 16 17 18 19 20 21 22 23 24 25 26 27 28 29 30 31 32 33 34 35 36 37 38 39 40 41 42 43 44 45 46 47 48 49 50

000
ASUS43 KFGF 260831
RWRFGF
PRAIRIE TO PINES  WEATHER ROUNDUP
NATIONAL WEATHER SERVICE EASTERN NORTH DAKOTA/GRAND FORKS ND
300 AM CDT TUE MAY 26 2015

 **SATELLITE DATA USED TO AUGMENT SKY COVER AT AUTOMATED STATIONS**
 *****  WEATHER ACROSS EASTERN NORTH DAKOTA  *****

CITY           SKY/WX    TMP DP  RH WIND       PRES   REMARKS
GRAND FORKS    CLEAR     55  50  83 S10       29.82F
GRAND FRKS AFB CLEAR     58  49  72 SW12      29.82F
GRAND FRKS NWS   N/A     52 N/A N/A S5          N/A
DEVILS LAKE    PTCLDY    63  46  55 W9        29.81S
FARGO          CLEAR     49  48  97 SW3       29.86F FOG
WAHPETON ARPT  SUNNY     52  46  82 N6        29.86F
$$

 ***** WEATHER ACROSS CENTRAL AND WESTERN NORTH DAKOTA  *****

CITY           SKY/WX    TMP DP  RH WIND       PRES   REMARKS
BISMARCK       PTCLDY    53  50  89 W5        29.91S
MINOT          CLEAR     58  46  64 SW12      29.85R
JAMESTOWN      PTCLDY    56  52  86 SW7       29.85F
MINOT AFB      CLEAR     56  51  82 W9        29.84R
GARRISON         N/A     52  48  86 W10       29.89R
WILLISTON      CLEAR     45  42  89 CALM      29.91R
DICKINSON      CLEAR     46  43  89 SW5       29.92F
HETTINGER      FOG       42  41  96 CALM      29.96S VSB 1/4
$$

 *****  OTHER AIRPORT OBSERVATIONS IN OUR AREA  *****

CITY           SKY/WX    TMP DP  RH WIND       PRES   REMARKS
WALHALLA         N/A     57  57 100 S6        29.78R
GRAFTON AIRPOR FAIR      54  52  94 S8        29.81S
VALLEY CITY AR FAIR      50  50 100 S8        29.85F
CANDO          FAIR      54  45  71 W8        29.81S
CAVALIER APRT  FAIR      57  55  94 S12       29.79R
GWINNER        NOT AVBL
SHEYENNE NWR     N/A     48  48  99 W2        29.95
ROLLA          CLOUDY    57  43  58 SW10      29.82S
 ***** THE ABOVE OBSERVATIONS ARE NON NWS ARE NOT QUALITY
       CONTROLLED AND MAY MIS-REPORT RAIN FOR SNOW...
$$

  *****  WEATHER ACROSS NORTHERN MINNESOTA  *****

CITY           SKY/WX    TMP DP  RH WIND       PRES   REMARKS
FLAG ISLAND    CLEAR     55  52  88 S9        29.81S
WARROAD        CLEAR     54  50  87 S7        29.83S
ROSEAU         CLEAR     55  50  82 S9        29.82F
HALLOCK        CLEAR     55  50  82 S10       29.81S
THF RVR FALLS  CLEAR     52  46  82 S7        29.85F
BAUDETTE       PTCLDY    50  48  93 SW6       29.84S
WASKISH        PTCLDY    50  48  93 CALM      29.85S
CROOKSTON      CLEAR     54  48  82 S7        29.85F
STEPHEN NDAWN    N/A     55  52  88 S12         N/A
GREENBUSH NDAW   N/A     55  50  82 S12         N/A
$$
  *****  WEATHER ACROSS CENTRAL AND WEST MINNESOTA  *****

CITY           SKY/WX    TMP DP  RH WIND       PRES   REMARKS
FOSSTON        CLEAR     45  43  93 CALM      29.87S FOG
BEMIDJI        FOG       45  45 100 CALM      29.85F VSB<1/4
PARK RAPIDS    CLEAR     47  45  93 NW3       29.85S FOG
ELBOW LAKE     FAIR      54  51  90 N12       29.83S
WADENA         CLEAR     50  48  93 NW9       29.84S
DETROIT LAKES  CLEAR     50  50 100 NW3       29.88S
MOORHEAD       CLEAR     52  48  87 CALM      29.87F
FERGUS FALLS   CLEAR     52  50  93 N8        29.87S
MORRIS MN      MOCLDY    54  52  94 N10       29.81R
STAPLES        PTCLDY    52  50  93 N7        29.83R
$$
  *****  WEATHER ELSEWHERE ACROSS MINNESOTA  *****

CITY           SKY/WX    TMP DP  RH WIND       PRES   REMARKS
DULUTH         DRIZZLE   53  51  93 NE6       29.81R FOG
INTRNTL FALLS  CLOUDY    49  47  93 CALM      29.85S
ELY            CLOUDY    52  50  93 CALM      29.83R
CLOQUET        CLOUDY    54  52  94 CALM      29.81S
WHEATON        PTCLDY    52  48  87 NW8       29.86S
BRAINERD       CLOUDY    54  52  93 NE5       29.82R
HIBBING        CLOUDY    54  50  86 N7        29.82S
ALEXANDRIA     MOCLDY    52  50  93 N7        29.83R
SAINT CLOUD    CLOUDY    56  54  93 N7        29.79S
MINNEAPOLIS    MOCLDY    60  57  89 CALM      29.79S
$$

  *****  WEATHER ACROSS SOUTH DAKOTA  *****

CITY           SKY/WX    TMP DP  RH WIND       PRES   REMARKS
SIOUX FALLS    CLOUDY    56  54  93 N6        29.80S
BROOKINGS      MOCLDY    52  48  87 CALM      29.84R
WATERTOWN      PTCLDY    51  48  89 N12       29.82F
HURON          PTCLDY    54  50  86 N9        29.84F
SISSETON         N/A     50  49  96 NW8       29.85F
ABERDEEN       PTCLDY    52  49  89 NW7       29.88F
MITCHELL       MOCLDY    54  51  90 N8        29.84S
PIERRE         CLOUDY    53  51  93 N9        29.90S
MOBRIDGE       CLOUDY    54  54 100 CALM      29.90S
RAPID CITY     CLOUDY    51  50  96 NE5       29.95F
$$

  *****  SOME WEATHER IN NEARBY STATES *****

CITY           SKY/WX    TMP DP  RH WIND       PRES   REMARKS
GLASGOW MT     CLEAR     53  45  74 E10       29.89S
GREAT FALLS MT CLOUDY    50  49  96 SW9       29.92R
CHEYENNE WY    CLEAR     42  38  85 NW5       30.02F
SCOTTSBLUFF NE PTCLDY    46  46 100 W5        29.95F FOG
OMAHA NE       CLOUDY    64  57  78 S8        29.78S
DES MOINES IA  TSTM      62  59  90 S18       29.84R FOG
DAVENPORT IA   PTCLDY    70  65  84 S13       29.87F
CHICAGO IL     PTCLDY    68  64  87 S9        29.92F
EAU CLAIRE WI  FOG       57  56  96 CALM      29.80S VSB 1/2
LA CROSSE WI   CLOUDY    64  60  87 SE6       29.77F
$$

  *****  SOME NATIONAL WEATHER *****

CITY           SKY/WX    TMP DP  RH WIND       PRES   REMARKS
LA GUARDIA NY  PTCLDY    68  52  56 SW12      30.18S
RALEIGH NC     MOCLDY    67  62  84 SW9       30.27S
ATLANTA GA     CLOUDY    71  68  90 SE8       30.20F
NEW ORLEANS LA MOCLDY    78  74  87 SE7       30.02F
OKLAHOMA CITY  PTCLDY    54  53  97 CALM      29.86R
ALBUQUERQUE NM CLEAR     53  47  79 SE3       30.08S
SALT LAKE CITY MOCLDY    58  45  62 SE8       29.97F
LOS ANGELES CA MOCLDY    61  55  81 W5        29.99F
BOISE ID       PTCLDY    55  49  80 CALM      29.90S
SEATTLE WA     CLOUDY    54  49  83 SW7       30.03S
$$

*** WEATHER ACROSS MANITOBA...SASKATCHEWAN AND ONTARIO ***
                ***ONTARIO***

CITY           SKY/WX    TMP DP  RH WIND       PRES   REMARKS
GERALDTON      LGT RAIN  54  52  94 N3        29.80F
THUNDER BAY    LGT RAIN  55  54  94 W2        29.79R
SIOUX LOOKOUT  MOCLDY    55  50  82 SW8       29.82R
TORONTO        PTCLDY    70  61  73 SW12      30.01R
BIG TROUT LK   CLEAR     48  43  81 SE5       29.67F
PICKLE LAKE    NOT AVBL
DRYDEN         CLOUDY    54  50  87 SW10      29.82S
KENORA         PTCLDY    55  52  88 SW13G20   29.81R
$$
                *** MANITOBA***

CITY           SKY/WX    TMP DP  RH WIND       PRES   REMARKS
BRANDON        CLEAR     52  43  71 NW8       29.78S
DAUPHIN        CLOUDY    57  43  58 W9        29.74S
ISLAND LAKE    PTCLDY    55  43  62 N9        29.67R
PILOT MOUND      N/A     55  45  67 SW6         N/A
THE PAS        MOCLDY    61  43  51 N13G23    29.69R
THOMPSON       CLOUDY    37  32  81 NE13G25   29.84S
WINNIPEG       PTCLDY    59  46  63 S13       29.75S
LYNN LAKE      LGT SNOW  32  30  93 E13G23    29.94R WCI  22
CHURCHILL      CLOUDY    25  19  80 N10       30.06S WCI  15
GILLAM         FRZ DRZL  30  28  93 NE10G23   29.91R WCI  21
$$
                ***SASKATCHEWAN***

CITY           SKY/WX    TMP DP  RH WIND       PRES   REMARKS
ESTEVAN        PTCLDY    54  46  76 W3        29.87S
KINDERSLEY     PTCLDY    55  34  44 S3        29.86S
LLOYDMINSTER   CLOUDY    59  41  51 CALM      29.85S
PRINCE ALBERT  MOCLDY    54  50  87 W5        29.79S
REGINA         CLEAR     55  41  58 W10       29.85
YORKTON        CLEAR     55  43  62 SW7       29.79F
N. BATTLEFORD  PTCLDY    50  39  66 CALM      29.85S
LA RONGE       MOCLDY    48  41  76 NE10      29.81R
SASKATOON      PTCLDY    52  43  71 W7        29.84S
SWIFT CURRENT  CLEAR     54  41  62 SW13      29.87S
$$
NOTE: THESE ARE AUTOMATED STATIONS WITH LIMITED QUALITY CONTROL
      "FAIR" INDICATES FEW OR NO CLOUDS BELOW 12,000 FEET WITH NO
      SIGNIFICANT WEATHER AND/OR OBSTRUCTIONS TO VISIBILITY.
      SKY/WX - SKY CONDITION AND SIGNIFICANT WEATHER.
      TMP - AIR TEMPERATURE.    DP   - DEWPOINT TEMPERATURE.
      RH  - RELATIVE HUMIDITY.  PRES - PRESSURE.
      HX  - HEAT INDEX.         WCI  - WIND CHILL INDEX.
$



USA.gov is the U.S. government's official web portal to all federal, state and local government web resources and services.